{"data":{"norad_id":65622,"intl_designator":"2025-210A","name":"STARLINK-35247","alt_names":[],"object_type":"PAYLOAD","status":"ACTIVE","operator":null,"country":"US","launch_date":"2025-09-18","launch_site_code":"AFETR","launch_vehicle":null,"mission":null,"orbit_class":"UNKNOWN","rcs_meters":null,"size_class":null,"mass_kg":null,"dimensions":null,"purposes":["comms"],"wikipedia_slug":null,"has_3d_model":false,"image_url":null,"decayed_at":null,"tle_current":{"epoch":"2026-05-24T22:33:44.208000Z","epoch_age_seconds":86981,"freshness":"FRESH","line1":"1 65622U 25210A   26144.94009500  .00018084  00000+0  62107-3 0  9994","line2":"2 65622  53.1594 313.0307 0000828  79.2565 280.8529 15.30206750 39408","mean_motion":15.3020675,"eccentricity":8.28e-5,"inclination_deg":53.1594,"raan_deg":313.0307,"arg_perigee_deg":79.2565,"mean_anomaly_deg":280.8529,"bstar":0.00062107,"rev_number":3940,"period_min":94.104930591896,"perigee_km":474.62745932753,"apogee_km":475.76237109268,"semimajor_km":6853.3319152101,"source":"CELESTRAK","updated_at":"2026-05-25T13:38:20.857557Z"}}}